Regional Weather Roundup
Issued by NWS

Home | Current Version | Previous Version | Graphics & Text | Print | Product List | Glossary On
Versions: 1 2 3 4 5 6 7 8 9 10 11 12 13 14 15 16 17 18 19 20 21 22 23 24 25 26 27 28 29 30 31 32 33 34 35 36 37 38 39 40 41 42 43 44 45 46 47 48 49 50
000
ASUS43 KDTX 290310
RWRMI
MICHIGAN HOURLY REGIONAL WEATHER ROUNDUP
NATIONAL WEATHER SERVICE DETROIT/PONTIAC MI
1100 PM EDT THU MAY 28 2015

NOTE: "FAIR" INDICATES FEW OR NO CLOUDS BELOW 12,000 FEET WITH NO
SIGNIFICANT WEATHER AND/OR OBSTRUCTION TO VISIBILITY.

MIZ047>049-052>055-059>063-066>070-074>076-081>083-290400-
SOUTHEAST LOWER MICHIGAN

CITY           SKY/WX    TMP DP  RH WIND       PRES   REMARKS
ADRIAN         FAIR      64  55  72 SE7       30.21R
ALMA           CLEAR     67  57  69 CALM      30.17S
ANN ARBOR      CLEAR     57  52  83 SE3       30.21R
BAD AXE        CLEAR     64  55  71 S7        30.21R
CARO           CLEAR     65  57  74 SE5       30.20S
DETROIT CITY   CLEAR     65  51  60 SE6       30.22S
DETROIT        PTCLDY    68  50  52 E5        30.22R
FLINT          CLEAR     64  54  69 SE6       30.20R
GROSSE ILE     CLEAR     64  54  68 E3        30.21R
HILLSDALE      CLEAR     67  51  56 E8        30.20S
HOWELL         CLEAR     64  51  64 SE6       30.20S

CITY           SKY/WX    TMP DP  RH WIND       PRES   REMARKS
JACKSON        CLEAR     66  53  63 SE9       30.20R
LAMBERTVILLE   CLEAR     64  57  77 E5        30.22R
LANSING        CLEAR     68  54  60 SE8       30.18S
LAPEER         FAIR      64  50  58 S5        30.21F
MASON          CLEAR     63  54  73 SE6       30.19S
MONROE         CLEAR     64  55  72 E8        30.21R
MT. CLEMENS    CLEAR     63  55  75 SE2       30.20S
PONTIAC        PTCLDY    67  50  54 SE8       30.21S
PORT HOPE        N/A     69  57  65 VRB6      30.18S
PORT HURON     CLEAR     57  54  88 CALM      30.23S
TRI CITIES     CLEAR     72  56  57 S10       30.19R
MIDLAND        FAIR      71  56  58 S6        30.17R
TROY           CLEAR     69  49  49 SE3       30.24S
SAGINAW HB     CLEAR     68  54  60 SE5       30.19R
$$
MIZ043>046-050>051-056>058-064>065-071>073-077>080-290400-
SOUTHWEST LOWER MICHIGAN

CITY           SKY/WX    TMP DP  RH WIND       PRES   REMARKS
BATTLE CREEK   CLEAR     71  56  58 SE9       30.17S
BENTON HARBOR  CLEAR     66  55  67 E7        30.11F
BIG RAPIDS     CLEAR     63  58  85 CALM      30.14F
COLDWATER      CLEAR     67  53  60 SE7       30.18R
FREMONT        FAIR      64  62  90 CALM      30.14S
HOLLAND        CLEAR     67  56  67 SE7       30.14S
GRAND RAPIDS   PTCLDY    67  56  67 SE6       30.15S
IONIA          FAIR      67  56  67 SE8       30.16S
KALAMAZOO      CLEAR     67  55  65 E3        30.16S
LUDINGTON      CLEAR     61  57  88 CALM      30.12F
MARSHALL       CLEAR     67  56  67 E5        30.17S
MOUNT PLEASANT CLEAR     70  56  59 SE5       30.16S
MUSKEGON       MOCLDY    67  59  75 E3        30.13S
SOUTH HAVEN    CLEAR     67  56  69 SE5       30.12S
$$
MIZ016>042-290400-
NORTHERN LOWER MICHIGAN

CITY           SKY/WX    TMP DP  RH WIND       PRES   REMARKS
ALPENA         CLEAR     58  53  84 SE3       30.16S
BEAVER ISLAND  PTCLDY    54  53  96 CALM      30.13F
BELLAIRE       PTCLDY    61  59  92 CALM      30.14S
CADILLAC       CLEAR     63  58  86 CALM      30.15F
CHARLEVOIX     FAIR      62  56  82 SE3       30.16S
FRANKFORT      CLEAR     60  52  74 CALM      30.11S
GAYLORD        CLEAR     67  61  81 CALM      30.16R
GRAYLING       PTCLDY    61  58  90 CALM      30.17S
HARBOR SPRINGS PTCLDY    58  55  91 NE6       30.14S
HOUGHTON LAKE  CLOUDY    68  61  78 SE5       30.17S
MANISTEE       CLEAR     61  54  77 E3        30.12F
OSCODA         CLEAR     63  56  79 CALM      30.17R
PELLSTON       CLOUDY    63  57  81 CALM      30.14R
ROGERS CITY    PTCLDY    65  57  74 S9        30.14S
TRAVERSE CITY  PTCLDY    59  54  83 CALM      30.12S
$$
MIZ007>008-015-290400-
EASTERN UPPER MICHIGAN

CITY           SKY/WX    TMP DP  RH WIND       PRES   REMARKS
KINROSS        CLEAR     57  52  82 SE8       30.16R
MACKINAC ISLAN PTCLDY    44  43  95 CALM      30.14F
NEWBERRY       CLEAR     56  54  91 S5        30.12S
S. S. MARIE    CLEAR     57  51  80 E7        30.15S
MUNISING         N/A     60  53  77 S5        30.05S
$$
MIZ004>006-011>014-085-290400-
CENTRAL UPPER MICHIGAN

CITY           SKY/WX    TMP DP  RH WIND       PRES   REMARKS
MANISTIQUE     PTCLDY    50  48  92 SE8       30.10F FOG
ESCANABA       PTCLDY    55  50  82 E3        30.05S
MENOMINEE      PTCLDY    66  52  59 S8        30.05S
SAWYER-GWINN   PTCLDY    62  55  80 S9        30.05S
$$
MIZ001>003-009>011-084-290400-
WESTERN UPPER MICHIGAN

CITY           SKY/WX    TMP DP  RH WIND       PRES   REMARKS
IRON MOUNTAIN  PTCLDY    65  61  87 S5        30.03S
HOUGHTON       PTCLDY    49  46  90 CALM      29.97F
COPPER HARBOR    N/A     56  51  84 SW10G17   29.96R
IRONWOOD       CLEAR     72  54  53 S6        29.95R
$$

ABBREVIATIONS USED IN REMARKS
   TC - TEMPERATURE IN CELSIUS
  WCI - WIND CHILL INDEX
   HX - HEAT INDEX
  VSB - VISIBILITY




USA.gov is the U.S. government's official web portal to all federal, state and local government web resources and services.